Regional Weather Roundup
Issued by NWS

Home | Current Version | Previous Version | Text Only | Print | Product List | Glossary Off
Versions: 1 2 3 4 5 6 7 8 9 10 11 12 13 14 15 16 17 18 19 20 21 22 23 24 25 26 27 28 29 30 31 32 33 34 35 36 37 38 39 40 41 42 43 44 45 46 47 48 49 50

000
ASUS45 KCYS 271910
RWRWY

WYOMING REGIONAL WEATHER ROUNDUP
NATIONAL WEATHER SERVICE CHEYENNE WY
1200 PM MST TUE JAN 27 2015

NOTE:  "FAIR" INDICATES FEW OR NO CLOUDS BELOW 12,000 FEET
WITH NO SIGNIFICANT WEATHER AND/OR OBSTRUCTIONS TO VISIBILITY.

WYZ001-272000-
YELLOWSTONE NATIONAL PARK

CITY           SKY/WX    TMP DP  RH WIND       PRES   REMARKS
LK YELLOWSTONE   N/A     23  15  71 CALM      30.23F
W YELLOWSTONE  NOT AVBL

$$
WYZ002>013-054>058-071-098>099-272000-
NORTHERN WYOMING

CITY           SKY/WX    TMP DP  RH WIND       PRES   REMARKS
JACKSON        FOG       18  18 100 CALM      30.25F VSB 3/4
CODY           FAIR      63  23  22 W13G18    30.00F
GREYBULL       FAIR      31  25  78 CALM      30.03F
WORLAND        FAIR      29  23  78 CALM      30.02F
SHERIDAN       FAIR      57  32  38 N8        29.92F
BUFFALO          N/A     59  33  37 SE6       29.97F
GILLETTE       FAIR      62  31  31 SW16      29.97F
HULETT           N/A    N/A N/A N/A MISG        N/A
NEWCASTLE      FAIR      59  25  27 CALM      30.03F

$$
WYZ014>020-022>026-101>103-272000-
CENTRAL WYOMING

CITY           SKY/WX    TMP DP  RH WIND       PRES   REMARKS
BIG PINEY      FAIR      33  21  61 CALM      30.24F
PINEDALE       FAIR      30  21  69 NW6       30.23F WCI  24
DUBOIS         FAIR      46  19  34 NW18G25   30.13F
LANDER         FAIR      34  27  75 CALM      30.10F
RIVERTON       FAIR      37  29  72 CALM      30.11F
CASPER         FAIR      55  26  32 W22G28    30.09F
DOUGLAS        FAIR      69  22  16 W20       30.05F

$$
WYZ021-027>030-104>119-272000-
SOUTHERN WYOMING

CITY           SKY/WX    TMP DP  RH WIND       PRES   REMARKS
EVANSTON       CLOUDY    43  26  51 SW18      30.22F
KEMMERER       FAIR      39  27  60 NW3       30.24F
FORT BRIDGER   FAIR      36  32  86 CALM      30.27S
ROCK SPRINGS   FAIR      45  27  49 N3        30.21F
DIXON          FAIR      42  27  55 CALM      30.28F
RAWLINS        FAIR      54  23  30 SW23      30.21F
SARATOGA       FAIR      54  23  30 S13       30.23F
LARAMIE        FAIR      57  21  24 SW16      30.20F
CHEYENNE       FAIR      66  19  16 W16G23    30.13F
TORRINGTON     FAIR      62  28  27 CALM      30.02F
PINE BLUFFS    FAIR      70  19  14 W9        30.10F

$$



USA.gov is the U.S. government's official web portal to all federal, state and local government web resources and services.